Torna al catalogo

BREEZE-M R/B

AttivoHEO
NORAD 28394·ROCKET BODY·🇷🇺 Russia

Lanciato Aug 4, 2004 da Baikonur Cosmodrome

Loading…

Prossimi Passaggi (prossime 24 ore)

TLE

AggiornatoSource: Space-Track

Epoca: Sep 14, 2026, 07:15 UTC

1 28394U 04031B   26257.30250520 -.00000173  00000-0  00000-0 0  9995
2 28394   9.1811  70.1344 6266158   8.5666 358.4397  2.10291528169906

Traccia BREEZE-M R/B in tempo reale con AllMySat

Download on the App Store